Location: Montague
(41.3030°N, 74.7940°W)
Time: 01:29:02
(UTC-04:00)

Daily predictions for brighter satellites

Satellite Brightness Start Highest point End
(mag) Time Altitude Azimuth Time Altitude Azimuth Time Altitude Azimuth
H-2A R/B 4.5 00:04:41 13° W 00:04:41 13° W 00:06:14 10° WNW
Terra 4.1 00:05:46 18° WNW 00:05:46 18° WNW 00:07:42 10° NW
COSMOS 2428 4.2 00:05:01 29° WNW 00:05:44 30° NW 00:10:44 10° N
NOSS 3-1 (A) 4.2 00:10:33 46° NNE 00:10:33 46° NNE 00:15:06 10° NNE
ATLAS 2AS CENTAUR R/B 4.3 00:13:05 26° ENE 00:13:05 26° ENE 00:17:12 10° NE
SL-16 R/B 3.7 00:33:20 30° NE 00:33:20 30° NE 00:36:10 10° NNE
Cosmos 2333 Rocket 3.7 00:46:51 30° NW 00:46:51 30° NW 00:51:28 10° N
CZ-4C R/B 3.3 00:39:28 10° NW 00:44:55 52° WNW 00:44:55 52° WNW
ATLAS 3B R/B 3.7 00:44:12 10° NNW 00:50:31 37° NE 00:51:14 37° ENE
Cosmos 2237 Rocket 3.7 00:56:36 32° NW 00:56:36 32° NW 01:00:48 10° N
Cosmos 2278 Rocket 4.2 00:54:06 10° NW 00:56:09 20° WNW 00:56:09 20° WNW
CZ-2C R/B 4.1 01:14:02 10° N 01:17:28 32° NNW 01:17:28 32° NNW
USA 215 3.9 01:16:52 10° NE 01:21:27 48° ENE 01:21:27 48° ENE
USA 267 4.1 01:49:28 10° E 01:55:38 46° NNE 02:01:48 10° NW
Cosmos 2341 Rocket 4.4 01:51:32 10° N 01:56:23 57° N 01:56:23 57° N
ATLAS CENTAUR R/B 4.1 02:00:34 16° N 02:00:34 16° N 02:01:47 10° N
Cosmos 2369 Rocket 3.1 01:52:55 10° NNW 01:56:56 44° N 01:56:56 44° N
ATLAS 2AS CENTAUR R/B 3.2 02:00:29 62° WNW 02:00:55 63° NW 02:08:59 10° NNE
SL-16 R/B 4.1 02:15:11 20° NW 02:15:11 20° NW 02:19:17 10° N
Resurs 1-4 Rocket 4.2 02:13:17 10° NE 02:16:40 17° E 02:16:58 17° E
CZ-2D R/B 4.1 02:16:16 10° NE 02:19:50 18° E 02:20:13 18° E
Cosmos 1943 Rocket 2.8 02:19:43 10° NNW 02:25:05 53° NE 02:25:05 53° NE
BREEZE M DEB (TANK) 4.4 02:04:53 10° WNW 02:27:59 85° SW 02:30:16 49° SE
ATLAS 3B R/B 3.8 02:34:57 10° NW 02:38:26 30° WNW 02:38:26 30° WNW
SL-16 R/B 3.2 02:49:25 32° SE 02:51:57 51° ENE 02:57:53 10° N
Aureole 1 Rocket 4.1 02:52:29 51° E 02:52:29 51° E 02:56:37 10° NNE
Cosmos 1680 Rocket 4.1 02:53:52 49° E 02:53:52 49° E 02:58:40 10° NNE
CBERS-1 4.3 02:48:32 10° NNE 02:52:55 65° NE 02:52:55 65° NE
USA 238 DEB 4.2 02:46:50 10° NW 02:52:03 46° WNW 02:52:03 46° WNW
USA 238 4.2 02:46:56 10° NW 02:52:12 47° WNW 02:52:12 47° WNW
IRS-1C 4.3 02:50:22 10° NNE 02:55:27 65° E 02:55:27 65° E
Cosmos 2218 Rocket 4.3 02:56:39 10° NNW 03:02:00 53° WNW 03:02:00 53° WNW
IRS-1D 4.2 02:58:39 10° NNE 03:03:39 47° E 03:04:07 45° ESE
USA 215 4.2 03:00:09 10° NE 03:06:06 39° NNW 03:08:48 28° WNW
Cosmos 2366 rocket 4.2 03:03:15 10° NNW 03:09:00 55° WNW 03:09:00 55° WNW
Cosmos 1656 Rocket 4.1 03:06:33 10° NNW 03:11:54 56° ENE 03:14:45 27° SE
Cosmos 1943 4.1 03:12:41 35° WNW 03:12:41 35° WNW 03:17:49 10° N
GEOS 3 Rocket 3.5 03:08:05 10° NE 03:13:25 85° SE 03:13:30 84° SSE
Cosmos 1626 Rocket 4.3 03:15:42 49° N 03:15:42 49° N 03:18:59 10° N
Lacrosse 5 rocket 3.8 03:14:44 16° ESE 03:14:44 16° ESE 03:17:37 10° E
UNK 3.9 03:16:45 68° ENE 03:16:45 68° ENE 03:21:13 10° N
ARIANE 5 R/B 2.8 03:13:48 10° NNE 03:19:00 61° E 03:19:42 55° SE
COSMOS 2455 3.2 03:13:29 10° NNW 03:19:29 63° ENE 03:25:25 10° SE
SL-08 R/B 4.4 03:22:01 33° NW 03:22:01 33° NW 03:24:52 10° NNW
Meteor 2-14 Rocket 4.3 03:15:36 10° NNW 03:21:41 66° W 03:21:59 65° WSW
Meteor 2-21 Rocket 4.4 03:17:18 10° NNW 03:23:20 59° W 03:23:27 59° W
Meteor 2-16 Rocket 4.3 03:17:19 10° NNW 03:23:23 72° W 03:24:01 66° SW
Genesis I 4.5 03:19:39 10° NNW 03:23:25 40° NE 03:25:23 23° ESE
Cosmos 1825 Rocket 4.5 03:24:03 41° ESE 03:24:36 43° E 03:28:47 10° NNE
NOSS 3-2 (C) 3.9 03:17:34 10° NW 03:25:10 86° SW 03:33:21 10° SSE
Cosmos 923 Rocket 4.1 03:26:00 64° WNW 03:26:02 64° WNW 03:31:22 10° NNE
RESURS DK-1 2.9 03:28:13 54° E 03:28:13 54° E 03:31:49 10° NNE
Cosmos 44 4.4 03:29:03 10° NW 03:31:15 29° NW 03:31:15 29° NW
Cosmos 1602 Rocket 4.4 03:35:29 41° NW 03:35:29 41° NW 03:38:56 10° N
Cosmos 1805 3.8 03:30:46 10° N 03:34:38 53° E 03:34:50 52° E
USA 267 3.2 03:32:04 10° SSE 03:38:30 60° SW 03:44:58 10° NW
Cosmos 1271 Rocket 3.7 03:35:14 10° N 03:38:50 42° ENE 03:39:35 37° ESE
NPP 4.4 03:35:55 10° N 03:40:48 36° WNW 03:41:02 36° WNW
Cosmos 2369 Rocket 4.3 03:38:14 10° WNW 03:38:41 11° WNW 03:38:41 11° WNW
CENTAUR R/B 3.8 03:35:35 10° NNW 03:43:13 54° NE 03:51:24 10° SE
Cosmos 192 4.2 03:44:35 66° SSW 03:45:19 89° E 03:50:17 10° NNE
COBE Rocket 3.9 03:41:20 10° NNE 03:46:27 86° E 03:47:36 54° S
Cosmos 1842 3.4 03:47:25 63° NNW 03:47:25 63° NNW 03:50:49 10° N
Cosmos 1766 4.3 03:43:45 10° NNW 03:46:22 35° NW 03:46:22 35° NW
Cosmos 724 4.2 03:42:28 10° NW 03:48:30 66° WSW 03:52:26 22° SSE
Tiangong 1 2.9 03:50:41 27° ENE 03:50:41 27° ENE 03:52:11 10° E
ADEOS Rocket 3.0 03:43:40 10° N 03:49:37 77° WNW 03:52:01 41° SSW
NOSS 3-4 (A) 3.8 03:49:10 41° WSW 03:51:04 55° NW 03:57:29 10° NNE
NOSS 3-4 (C) 3.8 03:49:15 41° WSW 03:51:11 56° NW 03:57:36 10° NNE
NOSS 2-2 (D) 4.4 03:51:47 33° SE 03:52:37 37° ESE 03:56:43 10° NE
Nadezhda 3 Rocket 4.2 03:53:26 43° WSW 03:54:57 52° WNW 04:01:07 10° N
Resurs 1-4 Rocket 2.2 03:51:42 10° N 03:56:52 59° WNW 03:58:03 47° WSW
Abrixas 4.1 03:59:32 28° N 03:59:32 28° N 04:01:35 10° NE
COSMOS 2406 3.2 03:57:45 45° SW 03:59:34 74° WNW 04:05:20 10° NNE
Cosmos 2098 Rocket 4.3 03:57:19 10° NNE 03:59:56 25° ENE 04:01:42 15° SE
CZ-2D R/B 2.2 03:55:04 10° N 04:00:16 56° WNW 04:01:33 44° WSW
Cosmos 1544 3.4 03:57:15 10° NNW 04:00:19 53° NW 04:00:19 53° NW
Cosmos 2112 Rocket 4.4 04:00:33 42° W 04:01:36 47° WNW 04:06:42 10° N
MOZ.5/SAFIR/RUBIN 5/SL-8 3.8 03:59:03 23° SSE 04:01:59 81° ENE 04:06:40 10° N
NOSS 3-2 (A) 4.4 04:00:13 10° NW 04:07:15 41° WSW 04:14:42 10° S
Cosmos 1943 Rocket 3.8 04:04:24 10° NW 04:06:33 18° WNW 04:06:33 18° WNW
NOSS 2-2 (C) 3.8 04:09:36 40° S 04:10:50 59° ESE 04:15:19 10° NE
Cosmos 1953 2.1 04:06:55 10° N 04:10:54 76° W 04:12:01 46° S
Cosmos 389 Rocket 3.8 04:08:51 10° N 04:12:20 40° ENE 04:15:44 10° SSE
Delta 2 Rocket 4.3 04:14:25 24° SSE 04:14:25 24° SSE 04:16:35 10° ESE
Cosmos 1758 Rocket 3.4 04:15:54 41° SSW 04:17:19 70° W 04:21:41 10° N
Cosmos 1707 3.7 04:15:03 17° SSE 04:17:45 45° E 04:21:29 10° NNE
Cosmos 1624 Rocket 3.9 04:12:49 10° NNW 04:18:01 73° WSW 04:23:13 10° S
Cosmos 1470 3.0 04:16:06 10° N 04:19:59 67° E 04:23:46 11° SSE
USA 32 4.1 04:18:56 33° SW 04:21:07 57° W 04:26:17 10° N
Landsat 4 3.9 04:18:37 10° SSE 04:22:16 72° ENE 04:26:01 10° N
Cosmos 1727 Rocket 4.1 04:16:46 12° S 04:22:31 75° E 04:28:42 10° N
Cosmos 1758 3.7 04:21:52 10° NNW 04:25:46 44° W 04:26:35 38° SW
Cosmos-2242 3.2 04:21:33 10° N 04:25:59 76° E 04:30:21 10° SSE
ADEOS 4.5 04:22:17 10° N 04:26:53 32° WNW 04:28:35 26° WSW
USA 161 1.7 04:27:46 50° W 04:27:46 50° W 04:30:26 10° NNW
UNKNOWN OBJECT B 3.4 04:26:42 10° N 04:30:28 41° WNW 04:31:32 33° WSW
Cosmos 2056 Rocket 3.5 04:25:46 10° NNW 04:31:02 60° WSW 04:36:11 10° S
SL-16 R/B 3.5 04:34:30 24° WSW 04:35:49 25° W 04:40:49 10° NW
Cosmos 921 Rocket 3.1 04:32:19 10° NNW 04:36:44 58° WSW 04:41:09 10° S
Cosmos 374 Rocket 4.2 04:34:35 10° NW 04:38:16 60° WSW 04:42:20 10° SSE
Cosmos 1953 Rocket 4.1 04:36:52 28° WSW 04:38:30 39° WNW 04:42:42 10° N
MOS 1 Rocket 3.3 04:42:05 10° N 04:46:17 53° WNW 04:49:11 20° SW
PSLV R/B 3.9 04:42:45 10° NNE 04:46:52 86° ESE 04:50:47 11° SSW
Meteor 2-15 4.4 04:40:46 10° S 04:46:55 85° W 04:53:06 10° N
CZ-4B R/B 3.3 04:43:41 10° NNE 04:47:57 70° ESE 04:52:22 10° S
EXPRESS MD2 4.3 04:43:49 10° NW 04:48:51 43° NNE 04:51:38 10° E
MOS 1-B 4.4 04:43:12 10° N 04:48:58 67° WNW 04:54:14 12° SSW
Cosmos 1378 3.1 04:48:40 10° S 04:52:25 83° E 04:56:11 10° N
Lacrosse 5 rocket 1.6 04:50:27 21° SW 04:53:31 76° NW 04:58:11 10° NE
SL-27 R/B 4.1 04:52:50 17° W 04:53:46 19° WNW 04:56:26 10° NNW
Meteor 2-15 Rocket 4.4 04:48:22 10° S 04:54:31 87° W 05:00:42 10° N
IRS-1C Rocket 4.4 04:50:39 10° NNE 04:55:55 70° ESE 05:01:10 10° S
ARIANE 5 R/B 4.2 04:54:08 10° NNW 04:57:37 18° WNW 05:00:02 14° W
Cosmos 1459 Rocket 4.2 04:56:13 10° N 05:02:23 77° E 05:08:37 10° S
CZ-4B DEB 4.4 04:57:01 10° NNE 05:02:34 78° ESE 05:08:02 10° S
Cosmos 1605 Rocket 4.4 04:58:20 10° NNW 05:04:04 40° W 05:09:44 10° SSW
COSMOS 2455 4.0 05:00:33 10° WNW 05:04:52 21° WSW 05:09:08 10° SSW
RESURS DK-1 4.5 05:04:08 11° W 05:06:11 14° NW 05:08:27 10° NNW
Okean O Rocket 1.6 05:01:45 10° N 05:06:12 75° WNW 05:10:35 10° SSW
Cosmos 1452 Rocket 3.4 05:01:03 10° NNW 05:06:18 71° WSW 05:11:30 10° S
ADEOS II 2.1 05:01:28 10° NNE 05:06:45 84° WNW 05:12:00 10° SSW
NOSS 2-2 (E) 4.4 05:04:42 16° WSW 05:07:36 37° NW 05:12:06 10° NNE
Cosmos 1733 4.1 05:05:20 10° NNW 05:08:37 28° W 05:11:54 10° SSW
Meteor 2-5 Rocket 3.8 05:03:33 10° SSW 05:09:10 66° WNW 05:14:58 10° N
Cosmos 1818 3.9 05:08:43 14° SW 05:13:18 51° NW 05:18:39 10° NNE
Cosmos 2278 3.7 05:08:41 10° NNW 05:14:25 76° WSW 05:20:06 10° SSE
Cosmos 1697 Rocket 3.6 05:09:40 10° NNW 05:15:11 54° ENE 05:20:40 10° SE
COSMOS 2487 2.6 05:11:55 11° SSW 05:15:14 55° WNW 05:18:45 10° N
Cosmos 468 4.5 05:12:26 10° SSW 05:17:38 77° WNW 05:22:53 10° NNE
Orbus 7S? 2.6 05:15:50 10° NW 05:18:55 80° NE 05:21:29 10° SE
EO 1 Del DPAF 3.2 05:15:14 10° S 05:19:05 75° WSW 05:22:57 10° NNW
SL-24 R/B 4.3 05:15:08 10° NNE 05:20:04 88° ESE 05:24:23 10° SSW
Cosmos 2369 3.7 05:15:24 10° NNW 05:21:07 69° WSW 05:26:47 10° SSE
Cosmos 1420 Rocket 4.0 05:19:42 10° NNW 05:25:02 75° WSW 05:30:18 10° SSE
Tiangong 1 0.7 05:22:23 10° WNW 05:25:13 86° S 05:28:04 10° ESE
Cosmos 1048 Rocket 4.0 05:25:44 10° SSW 05:30:53 85° WNW 05:36:02 10° NNE
Meteor 2-1 Rocket 4.3 05:25:45 10° N 05:31:24 85° W 05:37:09 10° S
Cosmos 2100 Rocket 4.1 05:27:22 10° NNW 05:33:25 57° W 05:39:24 10° SSW
CENTAUR R/B 3.5 05:26:33 10° NW 05:33:56 42° WSW 05:41:39 10° S
SOZ 4.2 05:32:48 10° WSW 05:34:59 70° NW 05:37:30 10° NE
Cosmos 1269 Rocket 4.0 05:33:30 10° SSW 05:38:45 73° WNW 05:44:03 10° NNE
